RA6011G NZQN-NZMF

Flight info

Callsign RA6011G
Flight time 0h 38m
Altitude 14000
Route NZQN QN DCT KSADE DCT YPONT DCT DPONT NZMF
Aircraft B60T/L-SDFGRY/C

Departure

Time 2026-05-03 20:55
Airport Queenstown Airport (NZQN)

Arrival

Time 2026-05-03 21:33
Airport Milford Sound Airport (NZMF)
Time Latitude Longitude Altitude Speed Heading
2026-05-03 20:31 -45.02092 168.73888 1168 ft 0 kts 252°
2026-05-03 20:32 -45.02089 168.73895 1168 ft 2 kts 200°
2026-05-03 20:32 -45.02078 168.73903 1167 ft 0 kts 240°
2026-05-03 20:49 -45.02078 168.73876 1168 ft 0 kts 295°
2026-05-03 20:49 -45.02075 168.73872 1168 ft 4 kts 328°
2026-05-03 20:50 -45.02068 168.73872 1165 ft 0 kts 25°
2026-05-03 20:50 -45.02052 168.73889 1167 ft 8 kts 56°
2026-05-03 20:50 -45.02046 168.73955 1168 ft 7 kts 87°
2026-05-03 20:50 -45.02045 168.73991 1168 ft 1 kts 82°
2026-05-03 20:51 -45.02004 168.74014 1170 ft 8 kts 23°
2026-05-03 20:51 -45.01998 168.74018 1168 ft 0 kts 23°
2026-05-03 20:52 -45.02000 168.74017 1171 ft 0 kts 23°
2026-05-03 20:53 -45.01993 168.74021 1170 ft 7 kts 23°
2026-05-03 20:53 -45.01952 168.74046 1169 ft 10 kts 23°
2026-05-03 20:53 -45.01929 168.74062 1171 ft 5 kts 37°
2026-05-03 20:53 -45.01910 168.74144 1168 ft 0 kts 76°
2026-05-03 20:54 -45.01788 168.74932 1187 ft 103 kts 75°
2026-05-03 20:54 -45.01599 168.76078 1441 ft 129 kts 75°
2026-05-03 20:55 -45.01356 168.77401 1720 ft 147 kts 73°
2026-05-03 20:55 -45.01082 168.78793 2257 ft 144 kts 73°
2026-05-03 20:55 -45.00846 168.80144 2669 ft 142 kts 78°
2026-05-03 20:55 -45.00736 168.81579 2882 ft 147 kts 81°
2026-05-03 20:56 -45.00509 168.82973 3133 ft 147 kts 63°
2026-05-03 20:56 -44.99769 168.83999 3176 ft 152 kts 22°
2026-05-03 20:56 -44.98763 168.84012 3515 ft 149 kts 338°
2026-05-03 20:56 -44.97963 168.83097 3783 ft 155 kts 316°
2026-05-03 20:57 -44.97151 168.82077 3925 ft 159 kts 324°
2026-05-03 20:57 -44.96214 168.81233 4081 ft 159 kts 332°
2026-05-03 20:57 -44.95212 168.80604 4275 ft 157 kts 333°
2026-05-03 20:57 -44.94410 168.79520 4283 ft 164 kts 301°
2026-05-03 20:58 -44.93913 168.78094 4485 ft 159 kts 295°
2026-05-03 20:58 -44.93500 168.76662 4666 ft 159 kts 290°
2026-05-03 20:58 -44.93160 168.75156 4789 ft 162 kts 287°
2026-05-03 20:58 -44.92839 168.73619 4914 ft 163 kts 287°
2026-05-03 20:59 -44.92485 168.72124 5123 ft 157 kts 297°
2026-05-03 20:59 -44.92172 168.70581 5035 ft 171 kts 281°
2026-05-03 20:59 -44.91857 168.68968 5028 ft 167 kts 294°
2026-05-03 20:59 -44.91287 168.67602 5287 ft 159 kts 310°
2026-05-03 21:00 -44.90556 168.66457 5523 ft 156 kts 314°
2026-05-03 21:00 -44.90067 168.65716 5658 ft 156 kts 314°
2026-05-03 21:00 -44.89083 168.64227 5920 ft 158 kts 313°
2026-05-03 21:00 -44.88309 168.63089 6166 ft 159 kts 314°
2026-05-03 21:01 -44.87563 168.61966 6364 ft 159 kts 313°
2026-05-03 21:01 -44.86800 168.60822 6591 ft 160 kts 313°
2026-05-03 21:01 -44.86040 168.59671 6815 ft 160 kts 313°
2026-05-03 21:01 -44.85264 168.58537 7013 ft 160 kts 314°
2026-05-03 21:02 -44.84508 168.57381 7235 ft 160 kts 311°
2026-05-03 21:02 -44.83743 168.56237 7425 ft 160 kts 313°
2026-05-03 21:02 -44.82973 168.55092 7636 ft 164 kts 311°
2026-05-03 21:02 -44.82178 168.53910 7907 ft 168 kts 314°
2026-05-03 21:03 -44.81362 168.52720 8152 ft 169 kts 314°
2026-05-03 21:03 -44.80550 168.51512 8458 ft 171 kts 311°
2026-05-03 21:03 -44.79749 168.50272 8732 ft 171 kts 310°
2026-05-03 21:03 -44.78949 168.49068 9039 ft 171 kts 311°
2026-05-03 21:04 -44.78131 168.47855 9335 ft 171 kts 311°
2026-05-03 21:04 -44.77309 168.46646 9624 ft 170 kts 311°
2026-05-03 21:04 -44.76499 168.45436 9923 ft 169 kts 310°
2026-05-03 21:04 -44.75691 168.44232 10234 ft 169 kts 310°
2026-05-03 21:05 -44.74883 168.43029 10532 ft 169 kts 310°
2026-05-03 21:05 -44.74079 168.41826 10779 ft 169 kts 310°
2026-05-03 21:05 -44.73274 168.40629 11053 ft 169 kts 310°
2026-05-03 21:05 -44.72464 168.39429 11317 ft 169 kts 310°
2026-05-03 21:06 -44.71659 168.38233 11594 ft 168 kts 310°
2026-05-03 21:06 -44.70853 168.37029 11855 ft 169 kts 310°
2026-05-03 21:06 -44.70045 168.35827 12120 ft 169 kts 310°
2026-05-03 21:06 -44.69245 168.34641 12375 ft 170 kts 310°
2026-05-03 21:07 -44.68433 168.33438 12622 ft 170 kts 310°
2026-05-03 21:07 -44.67619 168.32230 12879 ft 170 kts 310°
2026-05-03 21:07 -44.66806 168.31026 13135 ft 170 kts 310°
2026-05-03 21:07 -44.65992 168.29819 13276 ft 170 kts 310°
2026-05-03 21:08 -44.65187 168.28603 13356 ft 170 kts 311°
2026-05-03 21:08 -44.64366 168.27412 13524 ft 170 kts 311°
2026-05-03 21:08 -44.63546 168.26209 13799 ft 170 kts 310°
2026-05-03 21:08 -44.62738 168.25000 14035 ft 170 kts 310°
2026-05-03 21:09 -44.61923 168.23792 14328 ft 171 kts 311°
2026-05-03 21:09 -44.61101 168.22591 14585 ft 171 kts 311°
2026-05-03 21:09 -44.60283 168.21376 14834 ft 171 kts 310°
2026-05-03 21:09 -44.59465 168.20165 15090 ft 171 kts 311°
2026-05-03 21:10 -44.58659 168.18973 15269 ft 171 kts 311°
2026-05-03 21:10 -44.57837 168.17774 15508 ft 170 kts 311°
2026-05-03 21:10 -44.57023 168.16571 15744 ft 170 kts 310°
2026-05-03 21:10 -44.56208 168.15358 15990 ft 171 kts 311°
2026-05-03 21:11 -44.55388 168.14148 16240 ft 171 kts 311°
2026-05-03 21:11 -44.54567 168.12941 16470 ft 171 kts 311°
2026-05-03 21:11 -44.53748 168.11740 16686 ft 171 kts 311°
2026-05-03 21:11 -44.52893 168.10488 16677 ft 182 kts 311°
2026-05-03 21:12 -44.52005 168.09172 16663 ft 189 kts 311°
2026-05-03 21:12 -44.51087 168.07821 16660 ft 194 kts 311°
2026-05-03 21:12 -44.50162 168.06465 16663 ft 195 kts 311°
2026-05-03 21:12 -44.49231 168.05099 16655 ft 184 kts 311°
2026-05-03 21:13 -44.48419 168.03899 16553 ft 160 kts 311°
2026-05-03 21:13 -44.47673 168.02809 16368 ft 152 kts 311°
2026-05-03 21:13 -44.46946 168.01743 16114 ft 150 kts 311°
2026-05-03 21:13 -44.46229 168.00693 15949 ft 148 kts 310°
2026-05-03 21:14 -44.45590 167.99584 15763 ft 145 kts 294°
2026-05-03 21:14 -44.45399 167.98206 15594 ft 146 kts 269°
2026-05-03 21:14 -44.45674 167.96810 15369 ft 151 kts 253°
2026-05-03 21:14 -44.46044 167.95427 15144 ft 152 kts 255°
2026-05-03 21:15 -44.46406 167.94039 14909 ft 152 kts 255°
2026-05-03 21:15 -44.46764 167.92670 14669 ft 152 kts 254°
2026-05-03 21:15 -44.47130 167.91267 14440 ft 151 kts 255°
2026-05-03 21:15 -44.47486 167.89897 14182 ft 152 kts 255°
2026-05-03 21:16 -44.47852 167.88482 13933 ft 153 kts 255°
2026-05-03 21:16 -44.48212 167.87107 13719 ft 152 kts 255°
2026-05-03 21:16 -44.48574 167.85715 13491 ft 152 kts 255°
2026-05-03 21:16 -44.48935 167.84327 13262 ft 152 kts 255°
2026-05-03 21:17 -44.49334 167.82956 13030 ft 154 kts 243°
2026-05-03 21:17 -44.49818 167.82213 12873 ft 160 kts 223°
2026-05-03 21:17 -44.51266 167.81591 12553 ft 171 kts 185°
2026-05-03 21:17 -44.52455 167.81620 12328 ft 171 kts 185°
2026-05-03 21:18 -44.53643 167.81632 12106 ft 170 kts 185°
2026-05-03 21:18 -44.54824 167.81640 11890 ft 170 kts 186°
2026-05-03 21:18 -44.56003 167.81646 11668 ft 169 kts 186°
2026-05-03 21:18 -44.57180 167.81652 11449 ft 169 kts 186°
2026-05-03 21:19 -44.58279 167.81321 11203 ft 158 kts 222°
2026-05-03 21:19 -44.58813 167.80102 10949 ft 146 kts 269°
2026-05-03 21:19 -44.58478 167.78809 10634 ft 148 kts 315°
2026-05-03 21:19 -44.57505 167.78338 10314 ft 157 kts 358°
2026-05-03 21:20 -44.56415 167.78542 10019 ft 157 kts
2026-05-03 21:20 -44.55328 167.78686 9718 ft 157 kts 359°
2026-05-03 21:20 -44.54256 167.78818 9420 ft 156 kts 360°
2026-05-03 21:20 -44.53171 167.78948 9111 ft 156 kts 360°
2026-05-03 21:21 -44.52089 167.79073 8812 ft 156 kts 360°
2026-05-03 21:21 -44.51009 167.79195 8516 ft 156 kts 360°
2026-05-03 21:21 -44.49930 167.79315 8225 ft 155 kts 359°
2026-05-03 21:21 -44.48856 167.79431 7939 ft 154 kts 360°
2026-05-03 21:22 -44.47804 167.79750 7631 ft 161 kts 27°
2026-05-03 21:22 -44.47147 167.81034 7327 ft 171 kts 75°
2026-05-03 21:22 -44.47329 167.82666 7036 ft 175 kts 122°
2026-05-03 21:22 -44.48255 167.83675 6732 ft 170 kts 168°
2026-05-03 21:23 -44.49401 167.83718 6454 ft 162 kts 200°
2026-05-03 21:23 -44.50368 167.82970 6187 ft 158 kts 218°
2026-05-03 21:23 -44.51255 167.82098 5921 ft 158 kts 218°
2026-05-03 21:23 -44.52149 167.81201 5652 ft 158 kts 218°
2026-05-03 21:24 -44.53105 167.80446 5357 ft 161 kts 192°
2026-05-03 21:24 -44.54220 167.80385 5081 ft 162 kts 180°
2026-05-03 21:24 -44.55351 167.80412 4800 ft 162 kts 180°
2026-05-03 21:24 -44.56481 167.80431 4524 ft 162 kts 180°
2026-05-03 21:25 -44.57620 167.80447 4160 ft 164 kts 179°
2026-05-03 21:25 -44.58743 167.80495 3786 ft 160 kts 169°
2026-05-03 21:25 -44.59753 167.81054 3383 ft 155 kts 141°
2026-05-03 21:25 -44.60482 167.82143 3060 ft 149 kts 127°
2026-05-03 21:26 -44.61126 167.83261 3043 ft 148 kts 120°
2026-05-03 21:26 -44.61489 167.84656 2785 ft 154 kts 104°
2026-05-03 21:26 -44.61858 167.86009 2679 ft 139 kts 121°
2026-05-03 21:26 -44.62242 167.86720 2529 ft 138 kts 128°
2026-05-03 21:27 -44.62884 167.87721 2297 ft 140 kts 132°
2026-05-03 21:27 -44.63799 167.88970 1997 ft 136 kts 137°
2026-05-03 21:27 -44.64560 167.89808 1691 ft 141 kts 144°
2026-05-03 21:27 -44.65384 167.90525 1476 ft 137 kts 151°
2026-05-03 21:28 -44.65996 167.90878 1142 ft 146 kts 169°
2026-05-03 21:28 -44.67163 167.91626 739 ft 138 kts 122°
2026-05-03 21:28 -44.67428 167.92427 714 ft 125 kts 113°
2026-05-03 21:28 -44.67921 167.93896 615 ft 126 kts 113°
2026-05-03 21:29 -44.68042 167.94648 688 ft 114 kts 81°
2026-05-03 21:29 -44.67852 167.95677 881 ft 102 kts 107°
2026-05-03 21:29 -44.68474 167.95982 874 ft 118 kts 213°
2026-05-03 21:29 -44.68533 167.95103 1006 ft 126 kts 314°
2026-05-03 21:30 -44.68115 167.94144 414 ft 102 kts 285°
2026-05-03 21:30 -44.67843 167.93299 219 ft 94 kts 313°
2026-05-03 21:30 -44.67462 167.92536 96 ft 93 kts 306°
2026-05-03 21:30 -44.67050 167.91770 235 ft 110 kts 317°
2026-05-03 21:31 -44.66303 167.91268 425 ft 126 kts 350°
2026-05-03 21:31 -44.65401 167.91218 611 ft 131 kts 358°
2026-05-03 21:31 -44.64543 167.91261 662 ft 119 kts
2026-05-03 21:31 -44.63761 167.91259 695 ft 119 kts 324°
2026-05-03 21:32 -44.63676 167.90128 479 ft 137 kts 233°
2026-05-03 21:32 -44.64487 167.89858 400 ft 118 kts 153°
2026-05-03 21:32 -44.65167 167.90198 429 ft 98 kts 170°
2026-05-03 21:32 -44.65852 167.90419 402 ft 103 kts 150°
2026-05-03 21:33 -44.66483 167.90870 361 ft 102 kts 149°
2026-05-03 21:33 -44.66972 167.91581 192 ft 102 kts 123°
2026-05-03 21:33 -44.67357 167.92331 89 ft 74 kts 125°
2026-05-03 21:33 -44.67527 167.92668 87 ft 11 kts 120°
2026-05-03 21:34 -44.67517 167.92759 85 ft 12 kts 17°
2026-05-03 21:34 -44.67483 167.92705 85 ft 16 kts 306°